SCP
0 0 0 0 0 0 0 0 0 0 0 0 0 0 0 0 0 0 0 0 0 0 0 0 0 0 0 0 0 0 1 1 0 0 0 0 0 0
0 0 0 0 0 0 0 0 0 0 0 0 0 0 0 0 0 0 0 0 0 0 0 0 0 0 0 0 0 0 0 0 0 0 0 0 0 0
0 0 0 0 0 0 0 0 0 0 0 0 0 0 0 0 0 0 0 0 0 0 0 0 0 0 0 0 0 0 0 0 0 0 0 0 0 0
0 0 0 0 0 -0 0 0 0 0 0 0 0 0 0 0 0 0 0 0 0 0 0 0 0 0 0 0 0 0 0 0 0 0 0 0 0 0
0 0 0 0 -0 -0 0 0 0 0 0 0 0 0 0 0 0 0 0 0 0 0 0 0 0 0 0 0 0 0 0 0 0 0 0 0 0 0
0 0 -0 0 -0 -0 -0 0 0 0 0 0 0 0 0 0 0 0 0 0 0 0 0 0 0 0 0 0 0 0 0 0 0 0 0 0 0 0
0 -0 -0 0 -0 0 0 0 0 0 0 0 0 0 0 0 0 0 0 0 0 0 0 0 0 0 0 0 0 0 0 0 0 0 0 0 0 0
0 -0 0 0 0 -0 -0 -0 0 0 0 0 0 0 0 0 0 0 0 0 0 0 0 0 0 0 0 0 0 0 0 0 0 0 0 0 0 0
0 -0 0 -0 0 0 -0 -0 0 0 0 0 0 0 0 0 0 0 0 0 0 0 0 0 0 0 0 0 0 0 0 0 0 0 0 0 0 0
0 0 0 -0 -0 0 -0 -0 0 0 0 0 0 0 0 0 0 0 0 0 0 0 0 0 0 0 0 0 0 0 0 0 0 0 0 0 0 0
0 0 0 0 -0 -0 -0 -0 0 0 0 0 0 0 0 0 0 0 0 0 0 0 0 0 0 0 0 0 0 0 0 0 0 0 0 0 0 0
0 0 -0 -0 -0 -0 -0 0 0 0 0 0 0 0 0 0 0 0 0 0 0 0 0 0 0 0 0 0 0 0 0 0 0 0 0 0 0 0
0 0 0 -0 -0 -0 -0 0 0 0 0 0 0 0 0 0 0 0 0 0 0 0 0 0 0 0 0 0 0 0 0 0 0 0 0 0 0 0
0 0 0 -0 -0 -0 -0 -0 -0 0 0 0 0 0 0 0 0 0 0 0 0 0 0 0 0 0 0 0 0 0 0 0 0 0 0 0 0 0
0 0 0 -0 -0 -0 -0 -0 0 0 0 0 0 0 0 0 0 0 0 0 0 0 0 0 0 0 0 0 0 0 0 0 0 0 0 0 0 0
0 0 0 0 0 0 0 -0 0 0 0 0 0 0 0 0 0 0 0 0 0 0 0 0 0 0 0 0 0 0 0 0 0 0 0 0 0 0
0 0 0 0 0 0 0 0 0 -0 0 0 0 0 0 0 0 0 0 0 0 0 0 0 0 0 0 0 0 0 0 0 0 0 0 0 0 0
0 0 0 0 0 0 0 0 0 -0 -0 0 0 0 0 0 0 0 0 0 0 0 0 0 0 0 0 0 0 0 0 0 0 0 0 0 0 0
0 0 0 0 0 0 0 0 0 0 0 0 0 0 0 0 0 0 0 0 0 0 0 0 0 0 0 0 0 0 0 0 0 0 0 0 0 0
0 0 0 0 0 0 0 0 0 0 0 0 0 0 0 0 0 0 0 0 0 0 0 0 0 0 0 0 0 0 0 0 0 0 0 0 0 0
0 0 0 0 0 0 0 0 0 0 0 0 0 -0 -0 0 0 0 0 0 0 0 0 0 0 0 0 0 0 0 0 0 0 0 0 0 0 0
0 0 0 0 0 0 0 0 0 0 0 0 0 0 -0 -0 0 0 0 0 0 0 0 0 0 0 0 0 0 0 0 0 0 0 0 0 0 0
0 0 0 0 0 0 0 0 0 0 0 0 0 0 0 0 0 -0 -0 0 0 0 0 0 0 0 0 0 0 0 0 0 0 0 0 0 0 0
Wind_Speed_500mb
46 52 43 44 38 37 41 36 42 39 49 36 37 31 29 20 23 24 29 29 50 64 69 108 107 89 74 74 74 76 75 67 67 70 71 74 77 77
49 54 49 41 34 37 38 39 34 35 26 36 33 32 24 17 18 18 25 39 41 71 72 67 69 73 70 59 60 70 75 75 74 74 74 73 77 78
52 55 44 36 35 35 37 39 35 30 32 30 28 20 16 11 9 14 18 29 31 59 72 68 63 58 54 51 50 52 69 74 78 71 75 73 75 78
58 48 39 38 45 39 35 38 38 26 25 26 18 10 6 6 9 14 21 25 27 54 57 61 59 59 59 52 50 50 57 62 73 81 81 81 77 78
47 46 39 45 54 49 31 35 36 35 25 21 21 16 8 5 14 16 24 26 36 32 31 37 44 47 50 53 51 51 53 65 69 73 86 86 84 81
40 42 38 48 50 47 31 31 32 33 35 31 29 29 22 9 13 20 22 27 43 38 31 27 32 40 41 44 47 49 52 60 71 78 80 86 86 85
40 42 41 41 43 35 26 24 29 32 33 37 39 38 35 23 13 17 28 30 33 33 30 26 22 23 29 35 35 41 50 51 65 82 85 83 86 83
44 46 45 45 49 32 18 13 17 26 31 35 41 40 37 26 21 12 20 27 30 30 34 31 23 17 15 12 8 32 39 49 55 57 85 86 90 84
40 44 47 46 51 35 22 15 12 12 19 27 32 36 32 25 16 23 22 20 32 39 39 37 31 30 23 21 17 14 5 28 37 55 62 77 87 83
38 37 47 45 48 41 27 21 17 14 17 21 23 25 26 23 15 19 23 29 30 34 37 42 33 33 26 21 17 17 18 18 6 15 42 71 81 81
40 36 42 38 43 41 32 30 23 15 14 15 15 15 21 27 18 10 18 26 33 35 37 38 36 37 28 24 21 13 15 25 26 24 23 36 78 86
41 40 40 39 35 38 35 35 32 29 23 18 15 18 27 31 37 31 17 20 22 18 19 25 20 14 19 28 22 18 19 19 18 18 23 25 31 53
44 44 42 39 31 30 31 32 29 24 28 28 26 27 29 34 37 39 39 36 35 31 18 15 11 16 23 30 26 27 27 21 16 12 11 18 21 26
42 40 37 34 32 30 33 31 29 29 33 36 37 35 32 33 34 35 34 35 33 32 28 21 23 21 30 29 23 30 31 27 20 14 13 16 20 17
37 34 33 34 35 36 38 38 38 41 44 46 45 42 37 29 22 23 26 27 27 29 29 31 29 23 18 25 29 29 28 28 25 22 17 12 10 16
40 40 42 44 46 45 44 46 47 47 47 46 43 38 34 33 35 30 27 24 29 33 32 30 29 22 25 26 21 22 18 15 17 14 14 14 14 11
48 49 51 53 52 51 50 48 47 45 45 43 41 41 39 36 40 35 34 36 40 35 29 27 28 23 22 21 23 24 22 19 16 15 11 10 9 10
50 55 56 56 55 54 52 50 49 47 46 43 42 41 40 41 40 37 39 41 39 35 33 26 24 24 25 31 25 22 18 17 14 11 11 9 7 6
52 55 56 56 54 52 51 50 49 47 44 43 42 41 39 41 45 42 39 36 37 36 36 30 24 17 20 32 24 23 21 20 18 16 15 10 6 5
57 55 54 52 51 50 49 49 47 45 44 44 43 42 41 45 40 40 38 35 34 31 32 33 35 32 27 28 23 24 24 23 20 18 17 16 16 16
58 53 51 50 49 48 47 46 47 46 44 43 43 43 43 43 41 40 37 35 33 34 35 35 33 26 20 20 25 22 24 24 22 24 23 14 16 18
64 60 54 49 47 46 46 45 44 44 44 45 43 42 41 41 43 42 41 39 36 32 30 25 21 18 21 27 29 25 19 16 18 22 22 22 20 13
62 62 61 59 54 48 45 44 42 44 44 43 45 45 41 41 41 42 40 39 36 33 30 28 27 26 30 28 25 24 22 18 14 11 12 14 13 11
Wind_Direction_500mb
348 350 344 342 345 347 355 351 346 325 332 333 324 309 308 275 248 221 213 204 187 200 208 206 224 220 219 222 221 222 226 228 232 231 233 232 230 229
343 343 342 339 342 348 350 354 351 341 314 320 317 308 304 287 239 227 216 184 185 175 187 184 193 202 208 208 220 225 223 224 226 234 235 233 232 229
342 345 347 349 344 342 350 358 356 346 332 317 313 307 295 272 225 200 200 180 176 185 184 188 189 191 191 196 203 218 230 228 227 231 234 236 234 231
345 350 355 357 356 343 348 358 2 359 349 336 336 335 332 231 180 160 171 164 152 183 190 191 193 201 207 213 219 222 229 235 231 232 234 234 235 234
351 356 1 2 355 342 347 357 3 17 23 23 26 27 36 134 159 129 132 134 128 127 162 195 199 200 203 210 220 224 224 230 234 234 235 233 233 232
357 1 6 5 348 341 346 358 6 15 26 37 40 46 45 73 119 107 118 121 109 118 135 159 193 202 204 212 222 230 238 231 230 232 233 232 231 233
0 8 8 356 352 344 346 355 13 18 25 35 38 37 37 49 80 107 111 104 104 113 118 134 153 177 197 212 227 234 237 244 237 230 230 229 230 228
5 11 9 3 358 356 348 353 14 21 26 33 36 32 30 36 53 110 134 119 104 106 109 106 114 133 145 159 222 238 231 236 238 237 225 220 219 222
3 10 4 9 3 0 360 349 346 3 24 32 32 30 24 17 33 74 86 114 109 109 111 98 104 102 107 111 95 74 355 252 242 229 222 216 213 216
5 12 4 14 7 6 11 18 11 17 31 30 26 26 28 18 41 73 91 105 113 115 111 95 101 96 97 103 111 95 91 76 334 236 224 222 208 211
8 14 11 8 12 11 22 27 31 34 38 37 33 38 50 47 42 86 83 112 107 106 113 105 101 90 82 86 91 98 98 92 85 83 106 194 205 205
12 14 17 8 18 16 22 27 31 37 45 55 65 69 66 68 68 74 89 97 101 88 104 114 115 100 69 60 67 76 89 99 108 103 98 101 129 170
18 19 18 11 14 29 33 34 36 46 57 61 67 75 74 68 68 67 68 73 81 79 81 129 116 102 110 89 77 71 75 92 98 106 119 114 113 122
23 21 21 19 25 33 42 45 52 58 62 62 64 65 67 65 61 61 60 61 63 68 71 84 103 118 120 119 96 81 79 74 66 87 94 113 129 147
33 30 31 36 42 47 54 57 58 59 60 60 60 60 60 61 62 56 59 61 63 69 73 76 82 102 113 113 102 90 93 84 78 71 56 56 94 118
44 46 48 51 55 60 60 57 55 55 55 58 59 60 65 71 71 72 75 76 72 71 74 76 85 86 94 93 95 92 75 91 81 83 84 85 86 71
45 51 53 55 57 57 57 58 57 57 56 56 57 58 59 62 68 67 71 71 68 69 77 79 81 88 82 73 73 67 64 71 70 72 83 93 102 100
46 49 49 49 48 48 49 51 51 52 52 52 51 52 53 57 63 64 68 65 63 64 68 80 94 99 91 76 65 57 53 49 41 42 51 45 52 82
48 48 47 47 46 46 46 46 47 49 50 49 49 52 56 64 62 58 61 65 65 61 58 65 89 91 82 76 60 47 42 40 34 24 29 35 28 348
48 46 45 44 44 44 44 44 47 49 50 49 50 51 59 60 59 60 57 59 62 63 64 64 61 61 65 67 62 37 38 41 45 49 54 46 66 63
47 44 44 44 44 44 44 44 44 45 47 49 50 50 53 57 60 61 62 60 62 62 60 55 50 50 59 74 73 65 50 43 43 40 40 70 95 71
43 44 42 42 42 42 41 42 44 45 47 47 46 46 47 53 58 57 56 56 54 55 60 60 62 63 67 64 72 76 74 52 27 24 26 40 45 38
41 40 41 42 43 42 42 44 46 44 44 43 43 45 47 53 56 56 54 58 58 58 61 62 61 63 63 65 72 68 62 64 62 52 44 38 34 29
Wind_Speed_850mb
46 52 43 44 38 37 41 36 42 39 49 36 37 31 29 20 23 24 29 29 50 64 69 108 107 89 74 74 74 76 75 67 67 70 71 74 77 77
49 54 49 41 34 37 38 39 34 35 26 36 33 32 24 17 18 18 25 39 41 71 72 67 69 73 70 59 60 70 75 75 74 74 74 73 77 78
52 55 44 36 35 35 37 39 35 30 32 30 28 20 16 11 9 14 18 29 31 59 72 68 63 58 54 51 50 52 69 74 78 71 75 73 75 78
58 48 39 38 45 39 35 38 38 26 25 26 18 10 6 6 9 14 21 25 27 54 57 61 59 59 59 52 50 50 57 62 73 81 81 81 77 78
47 46 39 45 54 49 31 35 36 35 25 21 21 16 8 5 14 16 24 26 36 32 31 37 44 47 50 53 51 51 53 65 69 73 86 86 84 81
40 42 38 48 50 47 31 31 32 33 35 31 29 29 22 9 13 20 22 27 43 38 31 27 32 40 41 44 47 49 52 60 71 78 80 86 86 85
40 42 41 41 43 35 26 24 29 32 33 37 39 38 35 23 13 17 28 30 33 33 30 26 22 23 29 35 35 41 50 51 65 82 85 83 86 83
44 46 45 45 49 32 18 13 17 26 31 35 41 40 37 26 21 12 20 27 30 30 34 31 23 17 15 12 8 32 39 49 55 57 85 86 90 84
40 44 47 46 51 35 22 15 12 12 19 27 32 36 32 25 16 23 22 20 32 39 39 37 31 30 23 21 17 14 5 28 37 55 62 77 87 83
38 37 47 45 48 41 27 21 17 14 17 21 23 25 26 23 15 19 23 29 30 34 37 42 33 33 26 21 17 17 18 18 6 15 42 71 81 81
40 36 42 38 43 41 32 30 23 15 14 15 15 15 21 27 18 10 18 26 33 35 37 38 36 37 28 24 21 13 15 25 26 24 23 36 78 86
41 40 40 39 35 38 35 35 32 29 23 18 15 18 27 31 37 31 17 20 22 18 19 25 20 14 19 28 22 18 19 19 18 18 23 25 31 53
44 44 42 39 31 30 31 32 29 24 28 28 26 27 29 34 37 39 39 36 35 31 18 15 11 16 23 30 26 27 27 21 16 12 11 18 21 26
42 40 37 34 32 30 33 31 29 29 33 36 37 35 32 33 34 35 34 35 33 32 28 21 23 21 30 29 23 30 31 27 20 14 13 16 20 17
37 34 33 34 35 36 38 38 38 41 44 46 45 42 37 29 22 23 26 27 27 29 29 31 29 23 18 25 29 29 28 28 25 22 17 12 10 16
40 40 42 44 46 45 44 46 47 47 47 46 43 38 34 33 35 30 27 24 29 33 32 30 29 22 25 26 21 22 18 15 17 14 14 14 14 11
48 49 51 53 52 51 50 48 47 45 45 43 41 41 39 36 40 35 34 36 40 35 29 27 28 23 22 21 23 24 22 19 16 15 11 10 9 10
50 55 56 56 55 54 52 50 49 47 46 43 42 41 40 41 40 37 39 41 39 35 33 26 24 24 25 31 25 22 18 17 14 11 11 9 7 6
52 55 56 56 54 52 51 50 49 47 44 43 42 41 39 41 45 42 39 36 37 36 36 30 24 17 20 32 24 23 21 20 18 16 15 10 6 5
57 55 54 52 51 50 49 49 47 45 44 44 43 42 41 45 40 40 38 35 34 31 32 33 35 32 27 28 23 24 24 23 20 18 17 16 16 16
58 53 51 50 49 48 47 46 47 46 44 43 43 43 43 43 41 40 37 35 33 34 35 35 33 26 20 20 25 22 24 24 22 24 23 14 16 18
64 60 54 49 47 46 46 45 44 44 44 45 43 42 41 41 43 42 41 39 36 32 30 25 21 18 21 27 29 25 19 16 18 22 22 22 20 13
62 62 61 59 54 48 45 44 42 44 44 43 45 45 41 41 41 42 40 39 36 33 30 28 27 26 30 28 25 24 22 18 14 11 12 14 13 11
Wind_Direction_850mb
348 350 344 342 345 347 355 351 346 325 332 333 324 309 308 275 248 221 213 204 187 200 208 206 224 220 219 222 221 222 226 228 232 231 233 232 230 229
343 343 342 339 342 348 350 354 351 341 314 320 317 308 304 287 239 227 216 184 185 175 187 184 193 202 208 208 220 225 223 224 226 234 235 233 232 229
342 345 347 349 344 342 350 358 356 346 332 317 313 307 295 272 225 200 200 180 176 185 184 188 189 191 191 196 203 218 230 228 227 231 234 236 234 231
345 350 355 357 356 343 348 358 2 359 349 336 336 335 332 231 180 160 171 164 152 183 190 191 193 201 207 213 219 222 229 235 231 232 234 234 235 234
351 356 1 2 355 342 347 357 3 17 23 23 26 27 36 134 159 129 132 134 128 127 162 195 199 200 203 210 220 224 224 230 234 234 235 233 233 232
357 1 6 5 348 341 346 358 6 15 26 37 40 46 45 73 119 107 118 121 109 118 135 159 193 202 204 212 222 230 238 231 230 232 233 232 231 233
0 8 8 356 352 344 346 355 13 18 25 35 38 37 37 49 80 107 111 104 104 113 118 134 153 177 197 212 227 234 237 244 237 230 230 229 230 228
5 11 9 3 358 356 348 353 14 21 26 33 36 32 30 36 53 110 134 119 104 106 109 106 114 133 145 159 222 238 231 236 238 237 225 220 219 222
3 10 4 9 3 0 360 349 346 3 24 32 32 30 24 17 33 74 86 114 109 109 111 98 104 102 107 111 95 74 355 252 242 229 222 216 213 216
5 12 4 14 7 6 11 18 11 17 31 30 26 26 28 18 41 73 91 105 113 115 111 95 101 96 97 103 111 95 91 76 334 236 224 222 208 211
8 14 11 8 12 11 22 27 31 34 38 37 33 38 50 47 42 86 83 112 107 106 113 105 101 90 82 86 91 98 98 92 85 83 106 194 205 205
12 14 17 8 18 16 22 27 31 37 45 55 65 69 66 68 68 74 89 97 101 88 104 114 115 100 69 60 67 76 89 99 108 103 98 101 129 170
18 19 18 11 14 29 33 34 36 46 57 61 67 75 74 68 68 67 68 73 81 79 81 129 116 102 110 89 77 71 75 92 98 106 119 114 113 122
23 21 21 19 25 33 42 45 52 58 62 62 64 65 67 65 61 61 60 61 63 68 71 84 103 118 120 119 96 81 79 74 66 87 94 113 129 147
33 30 31 36 42 47 54 57 58 59 60 60 60 60 60 61 62 56 59 61 63 69 73 76 82 102 113 113 102 90 93 84 78 71 56 56 94 118
44 46 48 51 55 60 60 57 55 55 55 58 59 60 65 71 71 72 75 76 72 71 74 76 85 86 94 93 95 92 75 91 81 83 84 85 86 71
45 51 53 55 57 57 57 58 57 57 56 56 57 58 59 62 68 67 71 71 68 69 77 79 81 88 82 73 73 67 64 71 70 72 83 93 102 100
46 49 49 49 48 48 49 51 51 52 52 52 51 52 53 57 63 64 68 65 63 64 68 80 94 99 91 76 65 57 53 49 41 42 51 45 52 82
48 48 47 47 46 46 46 46 47 49 50 49 49 52 56 64 62 58 61 65 65 61 58 65 89 91 82 76 60 47 42 40 34 24 29 35 28 348
48 46 45 44 44 44 44 44 47 49 50 49 50 51 59 60 59 60 57 59 62 63 64 64 61 61 65 67 62 37 38 41 45 49 54 46 66 63
47 44 44 44 44 44 44 44 44 45 47 49 50 50 53 57 60 61 62 60 62 62 60 55 50 50 59 74 73 65 50 43 43 40 40 70 95 71
43 44 42 42 42 42 41 42 44 45 47 47 46 46 47 53 58 57 56 56 54 55 60 60 62 63 67 64 72 76 74 52 27 24 26 40 45 38
41 40 41 42 43 42 42 44 46 44 44 43 43 45 47 53 56 56 54 58 58 58 61 62 61 63 63 65 72 68 62 64 62 52 44 38 34 29